"Pseudo-MPEC" for P11JI5k
Created 2023 Sep 21 1:22:23 UT using Find_Orb
Click here for an explanation of pseudo-MPECs
Astrometry: P11JI5k* C2023 09 16[jIU@Bk.pFY:Cj'`vjm^9f`ONpWUjYjZ(a5H][1-[DG$h(s1fQZ3
F51 P11JI5k C2023 09 16MiW,475O'72?wG@!5tTu_V7s2K`_:qlN.[
Astrometry#iLi+Ob(
F51 P11JI5k C2023 09 16v(^e_X?Z=Pv.#.Y=nN
redacted;4:vuZ@!IKP2.nFlSXehuo^L'q
F51 P11JI5k C2023 09 16iOEWi.\N?+SJq;Pfavs?aoeZ
click-8a$[6$9Y!wbOpm\@?xK+_!
F51 P11JI5k 1C2023 09 17.13007 07 01 40.08 +32 41 39.3 ~9H8q 21.3 VXNEOCP033 P11JI5k 1C2023 09 17.13365 07 01 40.62 +32 41 34.8 ~9H8q 21.7 VXNEOCP033 P11JI5k 1C2023 09 17.13724 07 01 41.13 +32 41 30.4 ~9H8q 21.2 VXNEOCP033 P11JI5k KC2023 09 20.46898207 09 37.832+31 30 41.87 ~9KBq 21.98GVNEOCPI52 P11JI5k KC2023 09 20.47089607 09 38.092+31 30 39.20 ~9KBq 22.00GVNEOCPI52 P11JI5k KC2023 09 20.47280007 09 38.315+31 30 37.66 ~9KBq 21.71GVNEOCPI52 P11JI5k KC2023 09 20.47470107 09 38.646+31 30 34.56 ~9KBq 22.11GVNEOCPI52 P11JI5k C2023 09 20X%=tN)T[u;9V+=IdCJa_S1
hereS6Rr4WWsXiRPcZYq;.fUdqL45p
F51 P11JI5k C2023 09 208PUlbb(n4KEi)iBY,l$rD'?pSS+#E\37xO?ld5
for=c%R!49W=)[
F51 P11JI5k C2023 09 20;01-=ARSTDQ*=wHSne2nrg
explanation\1x=((xClRU09LRkY`i
F51 Station data: (033) Karl Schwarzschild Observatory, Tautenburg (N50.980137 E11.711240) Germany. Observer B. Stecklum. 1.34-m f/3 Schmidt + CCD. (F51) Pan-STARRS 1, Haleakala (N20.707234 W156.255910) US/Hawaii. Observers J. Bulger, T. Lowe, A. Schultz, M. Willman. Measurers K. Chambers, S. Chastel, T. de Boer, L. Denneau, J. Fairlamb, H. Flewelling, M. Huber, C.-C. Lin, E. Magnier, Y. Ramanjooloo, R. Wainscoat, R. Weryk. 1.8-m Ritchey-Chrétien + CCD. (I52) Steward Observatory, Mt. Lemmon Station (N32.442544 W110.788920) US/Arizona. Observers T. A. Pruyne, B. M. Africano, E. J. Christensen, G. A. Farneth, D. C. Fuls, A. R. Gibbs, A. D. Grauer, H. Gröller, J. A. Johnson, R. A. Kowalski, S. M. Larson, G. J. Leonard, D. Rankin, R. L. Seaman, F. C. Shelly, K. W. Wierzchoś. 1.0-m prime focus + CCD. Orbital elements: P11JI5k Perihelion 2023 Jul 31.83109 +/- 4.95 TT = 19:56:45 (JD 2460157.33109) Epoch 2023 Sep 20.0 TT = JDT 2460207.5 Earth MOID: 0.4414 Ma: 0.0061 M 10.05244674 +/- 4.3 (J2000 ecliptic) AutoNEOCP n 0.20037202 +/- 0.0665 Peri. 121.60715 +/- 5.5 a 2.89230877 +/- 0.64 Node 257.26826 +/- 1.4 e 0.5570814 +/- 0.0778 Incl. 28.67967 +/- 0.7 P 4.92 H 18.72 G 0.15 U 10.9 q 1.28105730 +/- 0.0593 Q 4.50356023 +/- 1.22 From 14 observations 2023 Sept. 16-20; mean residual 0".21
Residuals in arcseconds: 230916 F51 .03+ .00 230917 033 .07+ .01- 230920 I52 .63+ .18- 230916 F51 .07- .03- 230917 033 .11- .07+ 230920 F51 .00 .05+ 230916 F51 .15+ .01+ 230920 I52 .23+ .18- 230920 F51 .14- .15- 230916 F51 .09- .00 230920 I52 .21+ .40- 230920 F51 .03+ .13+ 230917 033 .14- .03+ 230920 I52 .27- .49+ Ephemerides (geocentric): Date (UTC) HH RA Dec delta r elong mag " sig PA ---- -------- ------------ ------------ ------ ------ ----- --- -------- 2023 09 21 01 07 10 56.486 +31 18 20.88 1.3289 1.4031 72.4 21.7 .731 103 2023 09 21 02 07 11 02.201 +31 17 26.75 1.3288 1.4033 72.4 21.7 .733 103 2023 09 21 03 07 11 07.912 +31 16 32.59 1.3287 1.4035 72.5 21.7 .734 104 2023 09 21 04 07 11 13.619 +31 15 38.42 1.3286 1.4037 72.5 21.7 .736 105 2023 09 21 05 07 11 19.321 +31 14 44.23 1.3285 1.4039 72.5 21.7 .737 105 2023 09 21 06 07 11 25.018 +31 13 50.02 1.3283 1.4041 72.5 21.7 .739 106 2023 09 21 07 07 11 30.712 +31 12 55.79 1.3282 1.4043 72.5 21.7 .740 106 2023 09 21 08 07 11 36.400 +31 12 01.55 1.3281 1.4044 72.6 21.7 .742 107 2023 09 21 09 07 11 42.084 +31 11 07.29 1.3280 1.4046 72.6 21.7 .743 108 2023 09 21 10 07 11 47.764 +31 10 13.02 1.3278 1.4048 72.6 21.7 .744 108 2023 09 21 11 07 11 53.439 +31 09 18.72 1.3277 1.4050 72.6 21.7 .746 109 2023 09 21 12 07 11 59.110 +31 08 24.41 1.3276 1.4052 72.6 21.7 .747 110 2023 09 21 13 07 12 04.776 +31 07 30.08 1.3275 1.4054 72.6 21.7 .748 110 2023 09 21 14 07 12 10.438 +31 06 35.73 1.3274 1.4056 72.7 21.7 .750 111 2023 09 21 15 07 12 16.095 +31 05 41.37 1.3272 1.4057 72.7 21.7 .751 111 2023 09 21 16 07 12 21.748 +31 04 46.99 1.3271 1.4059 72.7 21.7 .752 112 2023 09 21 17 07 12 27.396 +31 03 52.59 1.3270 1.4061 72.7 21.7 .753 113 2023 09 21 18 07 12 33.040 +31 02 58.18 1.3269 1.4063 72.7 21.7 .754 113 2023 09 21 19 07 12 38.680 +31 02 03.75 1.3268 1.4065 72.7 21.7 .756 114 2023 09 21 20 07 12 44.315 +31 01 09.30 1.3266 1.4067 72.8 21.7 .757 115 2023 09 21 21 07 12 49.945 +31 00 14.83 1.3265 1.4069 72.8 21.7 .758 115 2023 09 21 22 07 12 55.571 +30 59 20.35 1.3264 1.4070 72.8 21.7 .759 116 2023 09 21 23 07 13 01.193 +30 58 25.85 1.3263 1.4072 72.8 21.7 .760 117 2023 09 22 00 07 13 06.810 +30 57 31.33 1.3261 1.4074 72.8 21.7 .761 118 2023 09 22 01 07 13 12.423 +30 56 36.80 1.3260 1.4076 72.9 21.7 .762 118 2023 09 22 02 07 13 18.031 +30 55 42.25 1.3259 1.4078 72.9 21.7 .764 119 2023 09 22 03 07 13 23.635 +30 54 47.68 1.3258 1.4080 72.9 21.7 .765 120 2023 09 22 04 07 13 29.234 +30 53 53.10 1.3257 1.4082 72.9 21.7 .766 120 2023 09 22 05 07 13 34.829 +30 52 58.50 1.3255 1.4084 72.9 21.7 .767 121 2023 09 22 06 07 13 40.420 +30 52 03.88 1.3254 1.4085 72.9 21.7 .768 122 2023 09 22 07 07 13 46.006 +30 51 09.25 1.3253 1.4087 73.0 21.7 .769 123 2023 09 22 08 07 13 51.587 +30 50 14.59 1.3252 1.4089 73.0 21.7 .770 123 2023 09 22 09 07 13 57.164 +30 49 19.93 1.3250 1.4091 73.0 21.7 .772 124 2023 09 22 10 07 14 02.737 +30 48 25.24 1.3249 1.4093 73.0 21.7 .773 125 2023 09 22 11 07 14 08.305 +30 47 30.54 1.3248 1.4095 73.0 21.7 .774 125 2023 09 22 12 07 14 13.869 +30 46 35.82 1.3247 1.4097 73.1 21.7 .775 126 2023 09 22 13 07 14 19.428 +30 45 41.08 1.3245 1.4099 73.1 21.7 .776 127 2023 09 22 14 07 14 24.983 +30 44 46.33 1.3244 1.4101 73.1 21.7 .778 128 2023 09 22 15 07 14 30.534 +30 43 51.56 1.3243 1.4102 73.1 21.7 .779 129 2023 09 22 16 07 14 36.080 +30 42 56.78 1.3242 1.4104 73.1 21.7 .780 129 2023 09 22 17 07 14 41.621 +30 42 01.98 1.3240 1.4106 73.1 21.7 .781 130 2023 09 22 18 07 14 47.158 +30 41 07.16 1.3239 1.4108 73.2 21.7 .783 131 2023 09 22 19 07 14 52.691 +30 40 12.32 1.3238 1.4110 73.2 21.7 .784 132 2023 09 22 20 07 14 58.219 +30 39 17.47 1.3237 1.4112 73.2 21.7 .786 132 2023 09 22 21 07 15 03.743 +30 38 22.61 1.3236 1.4114 73.2 21.7 .787 133 2023 09 22 22 07 15 09.263 +30 37 27.72 1.3234 1.4116 73.2 21.7 .789 134 2023 09 22 23 07 15 14.778 +30 36 32.82 1.3233 1.4118 73.3 21.7 .790 135 2023 09 23 00 07 15 20.288 +30 35 37.90 1.3232 1.4119 73.3 21.7 .792 136